Terminal Aerodrome Forecast
Issued by NWS Bismarck, ND

Home | Current Version | Previous Version | Graphics & Text | Print | Product List | Glossary On
Versions: 1 2 3 4 5 6 7 8 9 10 11 12 13 14 15 16
745
FTUS43 KBIS 221758 AAA
TAFBIS
TAF AMD
KBIS 221758Z 2218/2318 27012G19KT P6SM FEW060
     FM222000 27008KT P6SM SCT070
     FM222300 33007KT P6SM BKN080
     FM230100 04008KT P6SM SCT060 BKN110
     FM230700 07012G21KT P6SM BKN030
     FM231000 07013G23KT P6SM BKN015=

USA.gov is the U.S. government's official web portal to all federal, state and local government web resources and services.